Regional Weather Roundup
Issued by NWS

Home | Current Version | Previous Version | Text Only | Print | Product List | Glossary Off
Versions: 1 2 3 4 5 6 7 8 9 10 11 12 13 14 15 16 17 18 19 20 21 22 23 24 25 26 27 28 29 30 31 32 33 34 35 36 37 38 39 40 41 42 43 44 45 46 47 48 49 50

448
ASUS43 KOAX 242010
RWRNE

WEATHER ROUNDUP FOR NEBRASKA
NATIONAL WEATHER SERVICE OMAHA NE
300 PM CDT THU MAY 24 2018

NOTES: SATELLITE DATA IS BEING USED TO AUGMENT CLOUD COVER ABOVE
       12000 FEET.
       "FAIR" INDICATES FEW OR NO CLOUDS BELOW 12,000 FEET WITH NO
       SIGNIFICANT WEATHER AND/OR OBSTRUCTIONS TO VISIBILITY.


NEZ001>004-019>022-054>056-242100-
NEBRASKA PANHANDLE

CITY           SKY/WX    TMP DP  RH WIND       PRES   REMARKS
SCOTTSBLUFF    SUNNY     82  49  31 W13G21    30.01F
ALLIANCE       SUNNY     82  44  26 W18G25    29.99F
CHADRON        SUNNY     81  52  36 W15       29.95F
GORDON         FAIR      81  49  32 W10G17    29.97S
KIMBALL        MOSUNNY   80  41  24 SW12      30.07F
SIDNEY         SUNNY     83  45  26 N14       30.04F
$$

NEZ057>060-069>072-079>082-242100-
SOUTHWEST NEBRASKA

CITY           SKY/WX    TMP DP  RH WIND       PRES   REMARKS
NORTH PLATTE   MOSUNNY   83  65  54 MISG      29.96F
IMPERIAL       SUNNY     86  58  38 NE8G21    29.98F
LEXINGTON      PTSUNNY   83  61  47 S10G21    29.94F
MCCOOK         SUNNY     85  64  49 SW5       29.93F
OGALLALA       SUNNY     84  53  34 N9G16     29.98F
$$

NEZ005>010-023>029-035>040-094-242100-
NORTH CENTRAL NEBRASKA

CITY           SKY/WX    TMP DP  RH WIND       PRES   REMARKS
VALENTINE      SUNNY     86  60  41 SW6G16    29.90F
AINSWORTH      MOSUNNY   78  66  65 S13       29.94F
BROKEN BOW     PTSUNNY   81  63  54 S12G22    29.96S
O`NEILL        PTSUNNY   83  65  54 S10G21    29.95R
ORD            PTSUNNY   83  62  49 S15G23    29.93F
THEDFORD       MOSUNNY   80  63  56 S6        29.97F
$$

NEZ041-046>049-061>064-073>077-083>087-242100-
SOUTH CENTRAL NEBRASKA

CITY           SKY/WX    TMP DP  RH WIND       PRES   REMARKS
GRAND ISLAND   MOSUNNY   87  61  41 S21G30    29.96F
AURORA         CLOUDY    86  54  34 S21G28    29.96S
HASTINGS       MOSUNNY   84  58  40 S14G28    29.97F
HEBRON         CLOUDY    88  55  32 S15G21    29.98F
HOLDREGE       CLOUDY    84  60  44 S17G25    29.95F
KEARNEY        MOSUNNY   83  59  44 S17G29    29.96S
YORK           CLOUDY    88  57  35 S18G28    29.96F
$$

NEZ011>018-030>034-042>045-242100-
NORTHEAST NEBRASKA

CITY           SKY/WX    TMP DP  RH WIND       PRES   REMARKS
NORFOLK        SUNNY     89  58  34 S23G31    29.90F
ALBION         PTSUNNY   87  60  40 S16G28    29.93F
BLAIR          MOSUNNY   88  63  42 S16G23    29.96F
COLUMBUS       CLOUDY    91  57  31 S16G25    29.94F
FREMONT        SUNNY     91  58  31 S16G23    29.94F HX  90
TEKAMAH        SUNNY     89  66  46 SE20G29   29.94F HX  91
WAYNE          SUNNY     87  60  40 S22G28    29.92F
$$

NEZ050>053-065>068-078-088>093-242100-
SOUTHEAST NEBRASKA

CITY           SKY/WX    TMP DP  RH WIND       PRES   REMARKS
LINCOLN        CLOUDY    88  63  43 S20G30    29.95F
OMAHA EPPLEY   MOSUNNY   90  63  40 S17G25    29.95F HX  91
BEATRICE       CLOUDY    85  65  52 S10       29.98F
FALLS CITY     PTSUNNY   86  66  51 S20G28    29.98F
NEBRASKA CITY  MOSUNNY   86  66  51 S17G23    29.98F
PLATTSMOUTH    MOSUNNY   88  67  50 SE14G23   29.97F HX  91
$$

NEZ044-045-051>053-067-242100-
OMAHA AREA

CITY           SKY/WX    TMP DP  RH WIND       PRES   REMARKS
OMAHA EPPLEY   MOSUNNY   90  63  40 S17G25    29.95F HX  91
BLAIR          MOSUNNY   88  63  42 S16G23    29.96F
FREMONT        SUNNY     91  58  31 S16G23    29.94F HX  90
MILLARD        MOSUNNY   90  66  43 SE12G20   29.95F HX  92
OFFUTT AFB     MOSUNNY   89  67  47 S20       29.95F HX  92
PLATTSMOUTH    MOSUNNY   88  67  50 SE14G23   29.97F HX  91
WAHOO          FAIR      92  52  25 S15G29    29.95F HX  90
$$




USA.gov is the U.S. government's official web portal to all federal, state and local government web resources and services.